Details for BMI Regional at EGPD




Go Back


Latest METAR
Local Time

EGPD 170850Z AUTO 23010KT 200V260 9999 NCD 16/08 Q1009 NOSIG
17/08/2018, 10:02:37

Description
Results
BMI Regional Logo
Number of Pilots based at EGPD
0 Pilots Based here
Number of BMI Regional Flights Departed from EGPD
0 Flights Departed
Number of BMI Regional Flights Arrived at EGPD
0 Flights Arrived
Number of BMI Regional Schedules Departing from EGPD
7 Schedules
Number of BMI Regional Schedules Arriving at EGPD
6 Schedules
Number of BMI Regional Schedules Departing from EGPD availible today
3 Schedules Today
Number of BMI Regional Schedules Arriving at EGPD availible today
3 Schedules Today
Average Landing Rate at EGPD
-239 fpm
BMI Regional Average Landing Rate at EGPD
0 fpm
Total Fuel Purchased at EGPD by BMI Regional
0.00 kgs / 0.00 lbs

Pilots Based at EGPD


Pilot ID
Pilot Name
Pilot Rank
No. of Flights
No. of Flying Hours
There are no pilots assigned to this hub!   Will you be the first?
Content